{"data":{"norad_id":68001,"epoch":"2026-05-24T23:05:27.646656Z","epoch_age_seconds":85279,"freshness":"FRESH","line1":"1 68001U 26039R   26144.96212554  .00020299  00000+0  74484-3 0  9997","line2":"2 68001  43.0026 338.5929 0001509 260.5095  99.5586 15.27593049 13363","mean_motion":15.27593049,"eccentricity":0.0001509,"inclination_deg":43.0026,"raan_deg":338.5929,"arg_perigee_deg":260.5095,"mean_anomaly_deg":99.5586,"bstar":0.00074484,"rev_number":1336,"period_min":94.265943468561,"perigee_km":481.97467583169,"apogee_km":484.0453700032,"semimajor_km":6861.1470229174,"source":"CELESTRAK","updated_at":"2026-05-25T13:38:21.782059Z"}}